Wind_Speed
10 12 13 13 14 14 11 11 12 13 14 14 14 14 13 13 12 11 11 10 9 8 7 6 6 5 5 6 6 7 7 7 8 8 9 9 9 9 9 9 9 9 8 8 7 6 6 6 6
7 8 10 12 13 10 10 10 10 11 12 12 12 12 12 12 11 10 9 8 7 6 6 5 5 5 5 5 6 6 6 7 7 8 8 8 8 8 8 8 8 8 7 6 6 5 5 4 4
5 6 7 8 8 8 9 9 8 9 10 10 10 11 11 10 10 9 7 6 5 5 4 5 5 5 5 5 5 6 6 6 7 7 7 7 7 7 7 7 6 6 6 6 5 5 4 4 4
6 5 5 5 4 5 5 6 6 7 8 8 9 9 10 9 9 8 6 5 4 3 3 4 4 4 5 5 5 6 6 7 7 7 7 7 7 6 6 5 5 5 5 6 6 6 6 5 5
8 6 5 4 4 4 3 3 3 4 6 7 8 9 9 9 8 7 6 5 4 3 2 1 2 4 5 5 5 6 6 7 7 7 7 7 7 6 5 5 5 5 5 6 6 6 7 7 7
9 8 8 8 6 6 4 3 3 3 5 7 8 9 9 9 8 7 7 6 6 4 3 2 3 4 5 6 6 6 7 7 7 7 7 7 7 7 5 5 5 5 5 6 6 7 8 8 8
11 11 11 10 9 8 7 6 5 6 7 8 9 10 10 9 9 9 9 9 8 8 7 6 6 7 8 8 8 8 8 7 8 8 8 8 8 8 7 6 6 6 6 7 7 7 9 9 9
11 11 12 12 11 10 9 8 6 6 8 9 10 11 11 10 10 10 10 10 11 10 10 10 10 10 11 11 11 10 10 10 10 10 10 10 10 9 9 8 8 8 8 8 9 9 10 10 10
13 13 14 13 11 10 10 9 7 6 6 7 8 10 11 10 10 11 11 11 12 12 12 12 13 13 13 13 13 13 13 13 13 12 12 12 11 11 11 10 10 11 11 11 10 11 11 11 11
15 16 17 13 11 10 10 9 8 7 5 5 5 7 9 10 10 10 11 11 12 13 13 13 14 14 14 14 15 15 15 15 15 15 14 13 13 13 13 13 13 13 13 13 13 13 13 12 11
19 19 18 15 13 12 11 10 10 9 8 6 5 6 7 9 10 11 11 11 12 13 13 13 14 14 15 15 16 16 16 16 16 16 16 16 16 16 16 16 16 16 16 16 15 15 15 14 14
23 22 21 20 18 16 15 13 13 13 13 11 9 8 9 11 12 12 13 13 13 14 14 15 16 16 17 17 18 18 18 18 18 18 18 18 18 18 18 19 19 19 19 19 18 18 18 18 17
27 25 24 24 23 22 21 19 18 19 18 16 14 14 14 14 14 15 16 17 17 18 18 19 19 20 20 20 21 21 21 21 21 21 21 21 21 21 22 22 22 22 22 22 22 22 21 21 20
31 29 29 29 29 28 26 25 25 26 23 22 21 20 20 19 19 20 21 22 22 23 23 23 24 24 25 25 25 26 26 25 26 25 25 25 25 25 25 26 26 26 26 26 25 25 25 24 23
34 33 33 34 34 34 31 30 34 31 29 28 27 26 26 26 26 26 26 27 27 28 28 28 28 29 29 30 30 30 30 29 30 30 30 29 30 30 30 30 30 29 29 29 29 28 28 27 26
39 37 38 40 38 38 35 35 41 36 35 34 33 32 32 32 32 32 32 32 33 33 33 33 33 33 34 34 35 34 34 34 34 35 34 34 34 35 34 34 34 33 32 32 31 31 30 29 29
42 42 43 43 42 42 40 41 46 41 40 39 38 37 37 37 37 37 37 38 38 38 38 38 38 38 39 39 39 39 39 38 38 39 38 39 39 39 39 38 38 37 36 35 34 34 33 32 31
39 41 42 44 45 44 44 45 47 45 44 43 43 43 42 42 42 43 43 43 43 43 43 42 42 42 43 43 43 43 43 42 42 42 42 43 43 43 43 42 42 41 39 38 37 37 36 36 34
29 31 35 38 42 43 46 47 48 47 46 45 45 45 45 45 45 46 46 47 47 47 47 46 46 46 46 46 46 45 45 45 45 45 45 46 46 46 46 46 45 45 43 42 41 40 40 38 37
22 24 27 30 32 34 38 41 44 45 45 44 44 44 44 44 44 45 45 46 47 47 47 47 48 48 49 49 49 48 47 47 46 46 45 45 47 48 47 47 47 47 46 44 44 43 41 40 39
23 24 26 26 27 28 32 33 37 37 38 39 39 40 40 40 40 40 41 42 43 44 45 45 46 47 49 49 49 48 48 47 45 46 46 46 47 48 48 48 49 48 47 45 45 45 42 41 40
26 27 27 28 28 29 32 33 34 37 36 38 39 39 39 39 39 39 40 40 41 42 43 45 46 47 47 48 49 49 48 48 47 47 47 46 47 47 47 48 49 49 48 47 46 45 43 43 41
26 27 27 28 29 30 31 33 31 37 36 37 39 39 40 40 40 40 41 41 42 43 44 46 47 48 49 50 50 50 51 50 49 48 47 46 46 47 47 48 47 47 47 44 41 39 40 39 37
23 24 25 25 26 27 27 29 30 31 32 33 35 36 37 38 39 39 40 41 42 44 45 46 48 49 50 51 52 53 53 53 52 50 49 48 48 48 48 47 47 46 46 42 40 39 37 35 33
18 19 20 19 18 19 23 24 25 26 26 27 29 30 31 32 34 35 36 38 40 42 44 46 48 49 51 52 53 54 54 54 53 52 51 50 50 49 48 47 44 42 42 40 38 36 35 32 31
15 17 18 19 19 19 20 21 22 23 24 25 26 27 27 28 30 31 33 34 36 39 41 44 46 49 51 52 53 54 54 54 53 53 52 51 50 48 47 44 43 42 41 38 36 33 32 30 29
14 16 18 20 20 20 19 19 21 23 24 25 25 25 26 27 27 29 30 32 34 37 39 42 44 47 50 52 55 56 55 55 55 54 53 52 49 47 45 43 41 39 38 37 33 30 29 29 29
17 18 19 21 23 23 21 21 23 25 25 25 26 26 26 26 27 28 29 31 33 34 36 38 40 42 44 47 50 52 54 54 53 52 51 49 48 46 44 44 40 38 36 34 31 29 28 28 29
20 21 23 24 26 27 27 25 26 27 28 28 28 28 27 27 28 29 30 31 32 34 35 36 37 38 40 41 43 44 46 48 48 48 47 46 45 44 44 42 40 38 35 33 31 30 29 29 29
21 23 25 26 28 30 32 30 29 30 31 31 30 30 29 29 29 30 30 31 32 32 33 34 34 35 36 37 38 38 39 40 41 41 42 42 42 42 42 39 37 35 34 33 30 29 29 29 30
Wind_Direction
124 114 109 104 104 103 115 120 120 119 118 118 117 117 116 115 116 117 119 121 122 119 110 97 83 69 54 42 41 46 50 53 53 52 51 50 48 49 52 55 57 59 60 60 58 53 47 41 36
138 126 117 112 104 107 125 133 131 128 126 125 123 123 122 122 122 122 120 118 116 112 99 80 63 50 39 31 31 34 39 43 44 43 43 41 40 40 40 42 47 49 49 49 47 42 33 22 14
170 150 133 123 116 125 131 142 144 143 138 135 133 132 131 132 134 131 127 125 119 108 87 65 46 32 24 20 20 23 25 29 32 32 31 30 30 30 30 31 35 38 36 34 32 27 16 3 353
201 188 167 147 147 142 143 151 159 158 153 154 153 151 150 148 147 145 145 145 140 126 94 62 36 14 5 3 2 6 8 12 16 18 19 18 17 16 16 18 21 24 22 17 12 8 0 350 341
216 211 208 211 206 200 190 180 190 194 188 185 184 180 174 171 171 169 173 180 181 175 148 63 12 348 341 340 342 346 351 357 3 6 7 7 5 4 3 3 0 3 5 4 0 357 352 346 334
225 221 223 228 231 231 234 250 273 284 255 232 220 211 204 197 198 198 203 212 220 227 236 267 293 305 310 314 317 324 333 343 349 351 353 354 354 352 346 340 338 337 341 345 347 349 347 343 336
228 228 231 233 235 237 243 261 283 292 288 273 259 243 233 223 221 222 226 233 241 251 261 272 281 288 294 298 302 307 312 321 328 332 333 336 336 334 329 320 314 312 317 323 328 333 337 338 336
231 232 238 238 236 239 243 252 267 286 293 287 277 262 254 246 242 241 244 248 254 260 267 273 277 283 287 290 292 294 299 305 311 316 316 318 320 319 316 310 305 303 303 308 314 316 324 329 332
231 234 239 241 237 240 242 243 249 267 293 298 294 282 271 262 257 255 256 260 263 267 272 274 275 278 281 284 286 288 292 297 301 304 306 307 309 309 307 302 299 296 295 296 302 307 311 316 322
232 234 241 244 241 237 237 238 239 251 277 295 304 300 285 276 269 265 264 266 269 272 274 275 277 278 280 281 283 286 290 293 296 298 299 300 301 303 301 297 294 292 291 290 292 296 302 305 309
234 240 246 247 246 243 239 240 242 249 260 268 280 291 293 289 284 278 273 271 272 273 274 277 278 278 280 281 282 284 287 289 292 295 296 297 298 298 298 295 291 289 289 287 287 289 294 295 297
237 243 248 251 252 251 248 246 247 251 256 260 267 276 284 291 291 286 281 278 276 276 277 279 279 279 279 280 280 281 283 285 287 289 291 293 294 295 295 293 290 288 287 285 285 285 287 288 289
238 243 249 254 255 256 256 255 254 255 257 260 264 268 275 283 286 284 281 279 278 278 279 279 279 279 279 279 279 280 282 283 283 284 286 287 289 289 290 290 287 285 285 283 281 281 281 283 284
241 244 249 254 256 257 258 261 260 258 260 261 263 266 270 274 277 278 279 278 278 278 278 277 277 278 278 277 278 279 281 281 281 281 283 283 284 284 285 285 284 283 282 280 279 278 278 279 280
243 245 248 251 255 257 260 263 261 262 263 264 265 267 270 272 273 274 275 276 276 276 276 276 275 276 276 276 276 278 278 278 279 279 280 281 280 280 281 281 281 280 279 278 277 275 275 275 276
245 246 248 251 254 258 260 260 263 264 266 267 267 268 270 271 272 273 274 275 275 275 275 275 275 275 275 275 275 276 277 277 277 277 278 278 278 277 278 278 278 277 277 276 274 273 273 273 274
245 246 248 253 254 258 259 258 266 268 268 269 270 270 270 271 271 272 273 273 274 275 275 274 274 273 273 273 273 273 274 275 274 274 275 276 276 276 275 275 275 275 274 273 272 271 271 271 272
247 249 251 253 255 257 259 260 265 267 268 269 269 269 270 270 270 270 271 272 272 273 274 274 273 273 272 272 272 271 271 271 271 271 272 273 274 274 273 273 274 273 272 271 271 269 269 269 269
252 253 254 255 257 258 260 262 264 266 267 268 268 269 269 268 268 269 269 269 270 271 271 271 271 271 271 271 269 268 269 269 269 269 270 271 272 273 274 273 273 273 272 270 269 269 269 269 268
257 257 258 259 260 260 261 264 266 267 269 269 269 269 269 268 267 267 267 267 267 268 269 269 270 269 269 269 267 267 267 268 268 269 270 272 273 275 275 274 273 273 271 271 270 271 269 269 269
262 260 262 263 265 264 264 265 267 266 268 269 270 270 270 270 269 268 267 266 266 267 267 268 268 269 269 269 268 268 270 270 271 271 271 272 274 274 274 275 272 270 269 269 270 270 271 270 269
267 265 266 266 265 265 266 266 269 269 269 269 269 270 270 270 270 270 268 267 266 266 267 267 268 269 270 270 271 272 273 273 274 274 273 273 274 274 274 274 272 269 268 267 269 268 267 269 268
267 270 269 269 269 269 270 271 269 272 272 271 271 271 271 271 271 271 270 269 268 268 268 268 268 269 270 271 272 273 274 274 275 275 276 277 277 277 277 274 271 269 268 267 266 264 265 265 264
272 274 275 276 276 277 275 274 275 274 275 273 273 272 273 273 273 272 272 271 271 271 270 270 270 270 270 271 272 273 274 275 275 276 276 278 278 278 278 275 272 267 263 263 262 261 260 263 264
279 281 284 285 284 284 281 279 279 277 276 275 275 275 275 276 276 276 276 275 274 273 273 273 273 272 271 271 271 271 273 274 274 275 276 276 276 277 276 276 271 266 261 258 259 257 259 260 261
283 284 284 284 283 282 284 284 281 279 277 277 277 278 279 280 280 280 280 279 278 276 275 275 274 272 272 271 271 271 271 272 273 275 275 275 275 275 275 272 267 263 258 256 253 255 255 256 259
287 285 285 288 288 288 286 286 283 282 282 283 282 283 284 284 285 285 284 283 282 281 279 278 276 275 274 272 270 270 270 270 271 272 273 273 273 272 272 267 264 260 256 252 252 254 257 257 260
290 290 290 290 291 290 288 286 287 287 286 286 286 287 288 288 288 290 290 290 289 288 286 284 282 280 278 275 272 271 269 269 269 269 270 269 269 267 266 263 259 255 252 249 251 254 257 259 263
292 290 289 288 288 289 289 288 289 289 288 288 287 288 290 291 292 293 295 296 297 296 294 291 288 286 284 281 277 273 270 268 267 266 266 265 264 261 259 255 255 252 249 250 252 254 259 262 263
293 292 291 290 290 289 290 293 292 290 288 287 287 288 290 292 294 295 297 299 301 302 301 299 295 292 290 287 281 276 272 267 265 262 261 262 260 258 255 252 248 247 247 248 251 255 260 262 264
Height
5932 5933 5934 5935 5937 5939 5939 5939 5939 5939 5939 5939 5939 5939 5940 5941 5942 5944 5942 5941 5941 5941 5940 5939 5939 5939 5938 5937 5936 5935 5934 5933 5932 5930 5929 5928 5927 5926 5925 5923 5922 5921 5919 5918 5917 5916 5914 5913 5912
5933 5934 5936 5937 5939 5941 5940 5940 5940 5940 5940 5940 5940 5940 5940 5941 5942 5942 5942 5942 5942 5941 5941 5940 5940 5940 5939 5938 5937 5936 5935 5933 5932 5931 5930 5928 5927 5926 5925 5924 5922 5921 5920 5919 5917 5916 5915 5913 5912
5933 5934 5937 5938 5939 5940 5941 5941 5941 5941 5940 5940 5940 5941 5941 5941 5942 5942 5942 5942 5942 5942 5941 5941 5940 5940 5939 5938 5937 5936 5935 5933 5932 5931 5930 5928 5927 5926 5925 5924 5922 5921 5920 5919 5917 5916 5915 5913 5912
5934 5936 5938 5939 5939 5940 5940 5941 5941 5941 5941 5941 5941 5941 5941 5941 5941 5942 5942 5942 5942 5941 5941 5940 5940 5940 5939 5938 5937 5936 5935 5933 5932 5931 5930 5929 5927 5926 5925 5923 5922 5921 5920 5919 5917 5916 5915 5913 5912
5933 5936 5938 5939 5939 5940 5940 5940 5941 5942 5942 5942 5941 5941 5941 5941 5941 5941 5941 5941 5941 5941 5940 5939 5939 5939 5939 5938 5937 5936 5934 5933 5932 5931 5930 5928 5927 5926 5924 5923 5922 5921 5920 5918 5917 5916 5914 5913 5911
5933 5936 5938 5938 5938 5939 5939 5940 5940 5941 5941 5942 5941 5941 5940 5940 5940 5940 5940 5940 5940 5939 5939 5938 5938 5938 5938 5937 5936 5935 5934 5933 5932 5930 5929 5928 5927 5925 5924 5923 5922 5921 5919 5918 5917 5915 5914 5912 5911
5932 5934 5935 5937 5938 5938 5939 5939 5939 5940 5940 5940 5940 5940 5939 5939 5938 5938 5939 5939 5938 5938 5938 5937 5937 5936 5936 5936 5935 5934 5933 5932 5931 5930 5929 5927 5926 5925 5924 5922 5921 5920 5919 5917 5916 5915 5913 5911 5910
5930 5933 5934 5935 5936 5937 5938 5938 5938 5938 5938 5938 5938 5938 5937 5937 5937 5937 5937 5937 5936 5936 5936 5935 5935 5934 5934 5934 5933 5932 5931 5930 5929 5928 5927 5926 5924 5923 5922 5921 5920 5918 5917 5916 5915 5913 5912 5910 5909
5928 5932 5932 5933 5934 5936 5937 5937 5937 5937 5937 5937 5936 5936 5936 5935 5935 5935 5934 5934 5934 5934 5933 5933 5932 5932 5932 5931 5930 5930 5929 5928 5927 5926 5924 5923 5922 5921 5920 5919 5918 5917 5916 5914 5913 5912 5911 5909 5907
5926 5928 5929 5930 5932 5934 5935 5935 5936 5936 5935 5935 5935 5935 5934 5933 5933 5932 5932 5932 5931 5931 5930 5930 5930 5929 5929 5928 5927 5927 5926 5925 5924 5923 5922 5921 5920 5918 5917 5916 5915 5914 5913 5912 5911 5910 5908 5907 5905
5923 5925 5926 5928 5929 5931 5932 5933 5934 5934 5933 5933 5933 5933 5932 5932 5931 5931 5930 5929 5929 5928 5928 5927 5927 5926 5925 5925 5924 5923 5922 5921 5920 5919 5919 5918 5917 5915 5914 5913 5912 5911 5910 5909 5908 5907 5906 5904 5903
5921 5922 5923 5925 5926 5927 5929 5930 5931 5931 5931 5931 5931 5930 5930 5930 5930 5929 5928 5927 5926 5925 5925 5924 5923 5923 5922 5921 5920 5919 5918 5917 5916 5916 5915 5914 5913 5912 5911 5910 5909 5908 5907 5905 5905 5904 5902 5901 5900
5918 5919 5920 5921 5922 5923 5925 5926 5927 5927 5927 5928 5928 5928 5928 5927 5927 5926 5925 5924 5923 5922 5921 5921 5920 5919 5918 5917 5916 5915 5914 5913 5912 5911 5911 5910 5909 5908 5907 5906 5904 5903 5902 5901 5900 5899 5898 5897 5896
5914 5915 5916 5916 5917 5918 5920 5921 5922 5921 5923 5924 5924 5924 5924 5924 5923 5922 5921 5920 5919 5918 5918 5917 5916 5915 5914 5913 5912 5910 5909 5908 5907 5906 5906 5905 5904 5903 5902 5901 5900 5899 5897 5896 5895 5894 5893 5892 5891
5909 5911 5911 5910 5911 5912 5916 5917 5914 5916 5918 5918 5919 5919 5919 5919 5918 5917 5916 5915 5914 5913 5912 5912 5911 5910 5909 5907 5906 5905 5904 5902 5901 5900 5899 5898 5897 5897 5896 5895 5894 5893 5892 5890 5889 5888 5887 5887 5886
5903 5905 5906 5904 5906 5906 5912 5911 5906 5909 5911 5912 5913 5913 5913 5913 5912 5911 5910 5909 5908 5907 5906 5905 5904 5903 5902 5901 5900 5899 5898 5896 5895 5893 5893 5891 5890 5889 5888 5888 5887 5885 5885 5884 5883 5882 5881 5880 5879
5897 5898 5899 5899 5900 5901 5904 5903 5899 5903 5904 5905 5906 5906 5906 5906 5905 5904 5903 5902 5901 5900 5899 5898 5898 5897 5895 5894 5893 5892 5890 5889 5888 5886 5885 5884 5882 5881 5880 5880 5879 5877 5877 5876 5875 5875 5874 5873 5872
5890 5892 5893 5894 5893 5895 5895 5895 5893 5895 5896 5896 5897 5897 5897 5897 5896 5896 5895 5894 5893 5892 5891 5890 5889 5888 5887 5886 5885 5884 5882 5881 5879 5878 5877 5875 5873 5872 5871 5871 5870 5869 5868 5867 5866 5866 5865 5865 5864
5885 5886 5886 5886 5886 5889 5887 5887 5886 5887 5887 5887 5887 5887 5887 5887 5887 5886 5886 5885 5884 5883 5882 5881 5880 5879 5878 5877 5876 5874 5873 5871 5870 5869 5868 5866 5864 5863 5862 5861 5861 5859 5858 5857 5857 5857 5857 5856 5855
5880 5881 5880 5880 5880 5881 5880 5880 5878 5878 5878 5878 5877 5877 5877 5877 5876 5876 5875 5875 5874 5873 5872 5872 5871 5870 5869 5868 5866 5865 5863 5862 5861 5860 5858 5857 5855 5853 5852 5852 5851 5849 5848 5848 5848 5847 5847 5848 5847
5875 5875 5875 5875 5875 5874 5874 5874 5871 5870 5869 5868 5868 5867 5866 5866 5866 5866 5865 5865 5864 5864 5863 5862 5862 5861 5859 5858 5856 5855 5854 5852 5851 5850 5849 5847 5844 5843 5842 5841 5840 5839 5838 5838 5838 5838 5838 5839 5839
5869 5869 5869 5869 5869 5869 5868 5868 5866 5863 5862 5861 5860 5859 5858 5857 5857 5856 5856 5855 5855 5854 5854 5853 5852 5851 5849 5848 5846 5845 5844 5843 5842 5839 5838 5836 5834 5832 5831 5830 5829 5828 5828 5828 5829 5829 5829 5830 5830
5863 5863 5862 5862 5862 5862 5861 5860 5861 5855 5855 5853 5852 5850 5849 5849 5848 5847 5846 5845 5845 5844 5843 5843 5842 5840 5839 5838 5836 5834 5834 5832 5830 5828 5827 5825 5823 5822 5821 5820 5819 5818 5818 5818 5818 5819 5819 5820 5821
5857 5857 5856 5856 5856 5855 5854 5853 5852 5849 5847 5845 5843 5841 5840 5839 5838 5837 5836 5835 5834 5833 5832 5831 5830 5829 5828 5826 5825 5822 5821 5819 5818 5817 5816 5815 5813 5812 5810 5809 5809 5808 5808 5809 5809 5810 5810 5812 5812
5853 5853 5852 5851 5851 5850 5847 5846 5845 5841 5839 5837 5836 5834 5832 5830 5829 5827 5826 5825 5823 5822 5821 5819 5817 5816 5814 5813 5811 5810 5808 5806 5805 5805 5804 5803 5802 5801 5799 5797 5797 5797 5798 5799 5800 5800 5801 5803 5804
5848 5848 5847 5846 5845 5844 5841 5839 5838 5835 5832 5830 5829 5827 5825 5823 5821 5819 5817 5815 5813 5811 5809 5806 5804 5802 5800 5799 5797 5795 5794 5792 5791 5792 5791 5791 5790 5789 5787 5786 5787 5788 5789 5790 5790 5790 5792 5794 5796
5845 5843 5842 5840 5839 5838 5836 5834 5832 5828 5826 5824 5822 5820 5818 5816 5813 5811 5808 5805 5802 5800 5797 5794 5791 5788 5786 5784 5782 5780 5779 5779 5778 5778 5778 5778 5777 5777 5776 5775 5776 5776 5778 5779 5781 5782 5784 5785 5787
5842 5840 5838 5836 5833 5832 5832 5830 5827 5823 5820 5818 5816 5813 5811 5808 5805 5802 5799 5795 5792 5788 5785 5782 5778 5775 5771 5768 5766 5765 5764 5763 5764 5764 5764 5764 5764 5764 5764 5764 5764 5766 5768 5769 5771 5773 5776 5777 5779
5837 5836 5833 5831 5829 5826 5824 5826 5821 5817 5814 5812 5809 5806 5803 5800 5797 5793 5790 5786 5782 5777 5773 5769 5765 5761 5757 5754 5751 5749 5748 5748 5749 5750 5750 5751 5751 5752 5752 5753 5755 5756 5758 5760 5762 5765 5767 5769 5770
5832 5830 5828 5826 5822 5819 5816 5818 5813 5810 5806 5803 5801 5798 5795 5792 5788 5784 5780 5776 5772 5767 5763 5758 5753 5749 5745 5741 5738 5735 5734 5734 5735 5736 5737 5738 5740 5741 5742 5743 5745 5747 5749 5752 5754 5756 5759 5760 5762